Torna al catalogo

FREGAT DEB

LostHEO
NORAD 46019·DEBRIS·🇷🇺 Russia

Lanciato Jul 18, 2011 da Baikonur Cosmodrome

Loading…

Prossimi Passaggi (prossime 24 ore)

TLE

ObsoletoSource: Space-Track

Epoca: Aug 30, 2020, 18:40 UTC

1 46019U 11037HW  20243.77841792  .00272251  00000-0  13111+0 0  9993
2 46019  51.6698 255.1576 2865053 125.1234 265.2655  9.22889569  2983

Traccia FREGAT DEB in tempo reale con AllMySat

Download on the App Store